Weather in Sevastopol

Russia / Republic of Crimea     44°33′25″N   33°31′35″E
temp.,
°C
wind,
m/s
gust,
m/s
humid.,
%
clouds,
%
prec.,
mm/h
press.,
hPa
HPBL,
m
7 march, sun
sun700:00+3nne896215 0.0 10281123
03:00+1nne78627 0.0 1029664
06:000nne67600 0.0 1029446
09:00+1nne45440 0.0 1029410
12:00+3nnw44360 0.0 1028689
15:00+3nw45420 0.0 1026856
18:00+3wnw44410 0.0 10241421
21:00+3wsw34460 0.0 1023992
8 march, mon
mon800:00+3sw45490 0.0 1022935
03:00+3sw56520 0.0 1021892
06:00+4sw55571 0.0 1019970
09:00+5sw555849 0.0 10191223
12:00+5sw675994 0.0 10181301
15:00+6sw676196 0.0 10171275
18:00+6sw7764100 0.1 10161136
21:00+6sw6870100 0.1 1017966
9 march, tue
tue900:00+6wsw6876100 0.6 1017849
03:00+6nnw346394 1.4 1017811
06:00+5nne33697 0.0 1017415
09:00+5nne34653 0.0 1019266
12:00+6n445918 0.0 1020646
15:00+6n656223 0.0 1020494
18:00+5n56670 0.0 1019463
21:00+5nne456021 0.0 1021430
10 march, wed
wed1000:00+4nne456033 0.0 1021332
03:00+2nne556143 0.0 1021235
06:00+2nne5663100 0.0 1020272
09:00+3ne5657100 0.0 1021313
12:00+5nne2151100 0.0 1020659
15:00+6wnw2348100 0.0 1019897
18:00+5n3457100 0.0 1019862
21:00+4n2268100 0.0 1020261
11 march, thu
thu1100:00+3n5674100 0.1 1021329
03:00+1nne897093 0.1 1022345
06:00+1nne810590 0.0 1023502
09:00+2ne78590 0.0 1025553
12:00+4ne44430 0.0 10261173
15:00+4n23390 0.0 10271112
18:00+4ne234536 0.0 10271077
21:00+3e335045 0.0 1028724